Time,TemperatureF,DewpointF,PressureIn,WindDirection,WindDirectionDegrees,WindSpeedMPH,WindSpeedGustMPH,Humidity,HourlyPrecipIn,Conditions,Clouds,dailyrainin,SoftwareType,DateUTC
2013-01-01 00:03:00,32.0,31.0,30.08,SW,216,0.0,2.0,97,0.00,,,0.01,,2013-01-01 05:03:00,
2013-01-01 00:12:00,32.0,31.0,30.08,SW,216,0.0,2.0,97,0.00,,,0.01,,2013-01-01 05:12:00,
2013-01-01 00:22:00,32.0,31.0,30.08,SW,216,0.0,1.0,97,0.00,,,0.01,,2013-01-01 05:22:00,
2013-01-01 00:32:00,32.0,31.0,30.08,SW,216,0.0,1.0,97,0.00,,,0.01,,2013-01-01 05:32:00,
2013-01-01 00:42:00,32.0,31.0,30.08,SW,216,0.0,1.0,97,0.00,,,0.01,,2013-01-01 05:42:00,
2013-01-01 00:53:00,32.0,31.0,30.08,SW,216,0.0,1.0,97,0.00,,,0.01,,2013-01-01 05:53:00,
2013-01-01 01:02:00,32.0,31.0,30.08,SW,216,0.0,1.0,97,0.00,,,0.01,,2013-01-01 06:02:00,
2013-01-01 01:12:00,32.0,31.0,30.08,SW,216,0.0,1.0,97,0.00,,,0.01,,2013-01-01 06:12:00,
2013-01-01 01:22:00,32.0,31.0,30.07,SW,216,0.0,1.0,97,0.00,,,0.01,,2013-01-01 06:22:00,
2013-01-01 01:32:00,32.0,31.0,30.07,SW,216,0.0,1.0,97,0.00,,,0.01,,2013-01-01 06:32:00,
2013-01-01 01:42:00,32.0,31.0,30.07,SW,216,0.0,1.0,97,0.00,,,0.01,,2013-01-01 06:42:00,
2013-01-01 01:52:00,31.0,30.0,30.07,SW,216,0.0,2.0,97,0.00,,,0.01,,2013-01-01 06:52:00,
2013-01-01 02:02:00,31.0,30.0,30.06,SW,216,0.0,2.0,97,0.00,,,0.01,,2013-01-01 07:02:00,
2013-01-01 02:12:00,31.0,30.0,30.07,SW,216,0.0,1.0,97,0.00,,,0.01,,2013-01-01 07:12:00,
2013-01-01 02:22:00,31.0,30.0,30.07,SW,216,0.0,1.0,97,0.00,,,0.01,,2013-01-01 07:22:00,
2013-01-01 02:32:00,31.0,30.0,30.07,SW,216,0.0,2.0,97,0.00,,,0.01,,2013-01-01 07:32:00,
2013-01-01 02:42:00,31.0,30.0,30.07,SW,216,0.0,2.0,97,0.00,,,0.01,,2013-01-01 07:42:00,
2013-01-01 02:52:00,31.0,30.0,30.06,SW,216,0.0,1.0,97,0.00,,,0.01,,2013-01-01 07:52:00,
2013-01-01 03:02:00,31.0,30.0,30.07,SW,216,0.0,2.0,97,0.00,,,0.01,,2013-01-01 08:02:00,
2013-01-01 03:11:00,31.0,30.0,30.07,SW,216,0.0,2.0,97,0.00,,,0.01,,2013-01-01 08:11:00,
2013-01-01 03:22:00,31.0,30.0,30.07,SW,216,0.0,2.0,97,0.00,,,0.01,,2013-01-01 08:22:00,
2013-01-01 03:32:00,31.0,30.0,30.08,SW,216,0.0,3.0,97,0.00,,,0.01,,2013-01-01 08:32:00,
2013-01-01 03:42:00,31.0,30.0,30.08,SW,216,0.0,2.0,97,0.00,,,0.01,,2013-01-01 08:42:00,
2013-01-01 03:53:00,31.0,30.0,30.08,SW,216,0.0,2.0,97,0.00,,,0.01,,2013-01-01 08:53:00,
2013-01-01 04:02:00,31.0,30.0,30.07,SW,216,0.0,0.0,97,0.00,,,0.01,,2013-01-01 09:02:00,
2013-01-01 04:12:00,31.0,30.0,30.07,SW,216,0.0,0.0,97,0.00,,,0.01,,2013-01-01 09:12:00,
2013-01-01 04:22:00,31.0,30.0,30.08,SW,216,0.0,1.0,97,0.00,,,0.01,,2013-01-01 09:22:00,
2013-01-01 04:32:00,31.0,30.0,30.08,SW,216,0.0,1.0,97,0.00,,,0.01,,2013-01-01 09:32:00,
2013-01-01 04:42:00,31.0,30.0,30.08,SW,216,0.0,1.0,97,0.00,,,0.01,,2013-01-01 09:42:00,
2013-01-01 04:52:00,31.0,30.0,30.09,SW,216,0.0,1.0,97,0.00,,,0.01,,2013-01-01 09:52:00,
2013-01-01 05:02:00,31.0,30.0,30.08,SW,216,0.0,1.0,97,0.00,,,0.01,,2013-01-01 10:02:00,
2013-01-01 05:12:00,31.0,30.0,30.07,SW,216,0.0,1.0,97,0.00,,,0.01,,2013-01-01 10:12:00,
2013-01-01 05:22:00,31.0,30.0,30.07,SW,216,0.0,1.0,97,0.00,,,0.01,,2013-01-01 10:22:00,
2013-01-01 05:32:00,31.0,30.0,30.08,SW,216,0.0,2.0,97,0.00,,,0.01,,2013-01-01 10:32:00,
2013-01-01 05:42:00,31.0,30.0,30.08,SW,216,0.0,2.0,97,0.00,,,0.01,,2013-01-01 10:42:00,
2013-01-01 05:53:00,31.0,30.0,30.09,SW,216,0.0,1.0,97,0.00,,,0.01,,2013-01-01 10:53:00,
2013-01-01 06:02:00,31.0,30.0,30.08,SW,216,0.0,1.0,97,0.00,,,0.01,,2013-01-01 11:02:00,
2013-01-01 06:12:00,31.0,30.0,30.09,SW,216,0.0,1.0,97,0.00,,,0.01,,2013-01-01 11:12:00,
2013-01-01 06:22:00,31.0,30.0,30.09,SW,216,0.0,1.0,97,0.00,,,0.01,,2013-01-01 11:22:00,
2013-01-01 06:32:00,31.0,30.0,30.09,SW,216,0.0,1.0,97,0.00,,,0.01,,2013-01-01 11:32:00,
2013-01-01 06:42:00,31.0,30.0,30.09,SW,216,0.0,1.0,97,0.00,,,0.01,,2013-01-01 11:42:00,
2013-01-01 06:53:00,31.0,30.0,30.09,SW,216,0.0,2.0,97,0.00,,,0.01,,2013-01-01 11:53:00,
2013-01-01 07:02:00,31.0,30.0,30.11,SW,216,0.0,2.0,97,0.00,,,0.01,,2013-01-01 12:02:00,
2013-01-01 07:12:00,31.0,30.0,30.11,SW,216,0.0,2.0,97,0.00,,,0.01,,2013-01-01 12:12:00,
2013-01-01 07:22:00,30.0,29.0,30.11,SW,216,0.0,1.0,97,0.00,,,0.01,,2013-01-01 12:22:00,
2013-01-01 07:32:00,30.0,29.0,30.11,SW,216,0.0,2.0,97,0.00,,,0.01,,2013-01-01 12:32:00,
2013-01-01 07:42:00,30.0,29.0,30.11,SW,216,0.0,2.0,97,0.00,,,0.01,,2013-01-01 12:42:00,
2013-01-01 07:53:00,30.0,29.0,30.11,SW,216,0.0,0.0,97,0.00,,,0.01,,2013-01-01 12:53:00,
2013-01-01 08:02:00,30.0,29.0,30.10,SW,216,0.0,0.0,97,0.00,,,0.01,,2013-01-01 13:02:00,
2013-01-01 08:12:00,30.0,29.0,30.10,SW,216,0.0,0.0,97,0.00,,,0.01,,2013-01-01 13:12:00,
2013-01-01 08:22:00,30.0,29.0,30.11,SW,216,0.0,0.0,97,0.00,,,0.01,,2013-01-01 13:22:00,
2013-01-01 08:32:00,30.0,29.0,30.10,SW,216,0.0,1.0,97,0.00,,,0.01,,2013-01-01 13:32:00,
2013-01-01 08:42:00,30.0,29.0,30.10,SW,216,0.0,1.0,97,0.00,,,0.01,,2013-01-01 13:42:00,
2013-01-01 08:53:00,30.0,29.0,30.09,SW,216,0.0,2.0,97,0.00,,,0.01,,2013-01-01 13:53:00,
2013-01-01 09:02:00,30.0,29.0,30.08,SW,216,0.0,2.0,97,0.00,,,0.01,,2013-01-01 14:02:00,
2013-01-01 09:12:00,30.0,29.0,30.08,SW,216,0.0,2.0,97,0.00,,,0.01,,2013-01-01 14:12:00,
2013-01-01 09:22:00,29.0,28.0,30.10,SW,216,0.0,1.0,96,0.00,,,0.01,,2013-01-01 14:22:00,
2013-01-01 09:32:00,29.0,28.0,30.11,SW,216,0.0,1.0,96,0.00,,,0.01,,2013-01-01 14:32:00,
2013-01-01 09:42:00,29.0,28.0,30.11,SW,216,0.0,1.0,96,0.00,,,0.01,,2013-01-01 14:42:00,
2013-01-01 09:53:00,29.0,28.0,30.11,SW,216,0.0,2.0,96,0.00,,,0.01,,2013-01-01 14:53:00,
2013-01-01 10:03:00,29.0,28.0,30.13,SW,216,0.0,3.0,96,0.00,,,0.01,,2013-01-01 15:03:00,
2013-01-01 10:12:00,28.0,27.0,30.13,SW,216,1.0,3.0,95,0.00,,,0.01,,2013-01-01 15:12:00,
2013-01-01 10:22:00,28.0,27.0,30.13,SW,216,1.0,3.0,95,0.00,,,0.01,,2013-01-01 15:22:00,
2013-01-01 10:33:00,28.0,27.0,30.14,SW,216,1.0,4.0,94,0.00,,,0.01,,2013-01-01 15:33:00,
2013-01-01 10:42:00,28.0,27.0,30.14,SW,216,1.0,4.0,94,0.00,,,0.01,,2013-01-01 15:42:00,
2013-01-01 10:53:00,28.0,-99.9,30.15,SW,216,0.0,2.0,-999,0.00,,,0.01,,2013-01-01 15:53:00,
2013-01-01 11:02:00,28.0,26.0,30.15,SW,216,0.0,3.0,93,0.00,,,0.01,,2013-01-01 16:02:00,
2013-01-01 11:12:00,28.0,26.0,30.15,SW,216,0.0,3.0,93,0.00,,,0.01,,2013-01-01 16:12:00,
2013-01-01 11:22:00,28.0,26.0,30.16,SW,216,0.0,1.0,93,0.00,,,0.01,,2013-01-01 16:22:00,
2013-01-01 11:33:00,28.0,26.0,30.17,SW,216,0.0,2.0,93,0.00,,,0.01,,2013-01-01 16:33:00,
2013-01-01 11:42:00,28.0,26.0,30.17,SW,216,0.0,2.0,93,0.00,,,0.01,,2013-01-01 16:42:00,
2013-01-01 11:53:00,28.0,26.0,30.16,SW,216,0.0,2.0,93,0.00,,,0.01,,2013-01-01 16:53:00,
2013-01-01 12:02:00,28.0,26.0,30.16,SW,216,0.0,2.0,93,0.00,,,0.01,,2013-01-01 17:02:00,
2013-01-01 12:12:00,28.0,26.0,30.16,SW,216,0.0,2.0,93,0.00,,,0.01,,2013-01-01 17:12:00,
2013-01-01 12:22:00,28.0,26.0,30.14,SW,216,0.0,3.0,92,0.00,,,0.01,,2013-01-01 17:22:00,
2013-01-01 12:33:00,0.0,-2.0,30.11,SW,216,0.0,3.0,92,-99.99,,,-99.99,,2013-01-01 17:33:00,
2013-01-01 12:42:00,0.0,-2.0,30.11,SW,216,0.0,3.0,92,-99.99,,,-99.99,,2013-01-01 17:42:00,
2013-01-01 12:53:00,28.0,26.0,30.12,SW,216,0.0,3.0,92,0.00,,,0.01,,2013-01-01 17:53:00,
2013-01-01 13:03:00,28.0,26.0,30.13,SW,216,0.0,3.0,92,0.00,,,0.01,,2013-01-01 18:03:00,
2013-01-01 13:12:00,28.0,26.0,30.13,SW,216,0.0,3.0,92,0.00,,,0.01,,2013-01-01 18:12:00,
2013-01-01 13:22:00,28.0,26.0,30.11,SW,216,0.0,3.0,92,0.00,,,0.01,,2013-01-01 18:22:00,
2013-01-01 13:33:00,28.0,26.0,30.12,SW,216,0.0,3.0,92,0.00,,,0.01,,2013-01-01 18:33:00,
2013-01-01 13:42:00,28.0,26.0,30.12,SW,216,0.0,3.0,92,0.00,,,0.01,,2013-01-01 18:42:00,
2013-01-01 13:53:00,28.0,26.0,30.12,SW,216,0.0,3.0,92,0.00,,,0.01,,2013-01-01 18:53:00,
2013-01-01 14:02:00,28.0,26.0,30.12,SW,216,0.0,3.0,92,0.00,,,0.01,,2013-01-01 19:02:00,
2013-01-01 14:12:00,28.0,26.0,30.12,SW,216,0.0,3.0,92,0.00,,,0.01,,2013-01-01 19:12:00,
2013-01-01 14:22:00,28.0,26.0,30.13,SW,216,0.0,2.0,92,0.00,,,0.01,,2013-01-01 19:22:00,
2013-01-01 14:32:00,28.0,26.0,30.12,SW,216,0.0,3.0,92,0.00,,,0.01,,2013-01-01 19:32:00,
2013-01-01 14:42:00,28.0,26.0,30.12,SW,216,0.0,3.0,92,0.00,,,0.01,,2013-01-01 19:42:00,
2013-01-01 14:52:00,28.0,26.0,30.13,SW,216,0.0,2.0,92,0.00,,,0.01,,2013-01-01 19:52:00,
2013-01-01 15:02:00,28.0,26.0,30.13,SW,216,0.0,3.0,92,0.00,,,0.01,,2013-01-01 20:02:00,
2013-01-01 15:12:00,28.0,26.0,30.13,SW,216,0.0,3.0,92,0.00,,,0.01,,2013-01-01 20:12:00,
2013-01-01 15:23:00,29.0,27.0,30.13,SW,216,0.0,2.0,91,0.00,,,0.01,,2013-01-01 20:23:00,
2013-01-01 15:32:00,29.0,27.0,30.12,SW,216,0.0,2.0,91,0.00,,,0.01,,2013-01-01 20:32:00,
2013-01-01 15:42:00,29.0,27.0,30.12,SW,216,0.0,2.0,91,0.00,,,0.01,,2013-01-01 20:42:00,
2013-01-01 15:53:00,29.0,27.0,30.10,SW,216,0.0,1.0,91,0.00,,,0.01,,2013-01-01 20:53:00,
2013-01-01 16:03:00,29.0,27.0,30.11,SW,216,0.0,1.0,91,0.00,,,0.01,,2013-01-01 21:03:00,
2013-01-01 16:12:00,29.0,27.0,30.12,SW,216,0.0,2.0,91,0.00,,,0.01,,2013-01-01 21:12:00,
2013-01-01 16:22:00,29.0,27.0,30.12,SW,216,0.0,2.0,91,0.00,,,0.01,,2013-01-01 21:22:00,
2013-01-01 16:32:00,28.0,25.0,30.12,SW,216,0.0,3.0,90,0.00,,,0.00,,2013-01-01 21:32:00,
2013-01-01 16:42:00,28.0,25.0,30.12,SW,216,0.0,3.0,90,0.00,,,0.00,,2013-01-01 21:42:00,
2013-01-01 16:53:00,28.0,25.0,30.13,SW,216,0.0,4.0,90,0.00,,,0.00,,2013-01-01 21:53:00,
2013-01-01 17:02:00,28.0,26.0,30.13,SW,216,0.0,2.0,91,0.00,,,0.00,,2013-01-01 22:02:00,
2013-01-01 17:12:00,28.0,26.0,30.13,SW,216,0.0,2.0,91,0.00,,,0.00,,2013-01-01 22:12:00,
2013-01-01 17:22:00,28.0,26.0,30.13,SW,216,0.0,3.0,91,0.00,,,0.00,,2013-01-01 22:22:00,
2013-01-01 17:32:00,27.0,25.0,30.13,SW,216,0.0,2.0,91,0.00,,,0.00,,2013-01-01 22:32:00,
2013-01-01 17:42:00,27.0,25.0,30.13,SW,216,0.0,2.0,91,0.00,,,0.00,,2013-01-01 22:42:00,
2013-01-01 17:52:00,27.0,25.0,30.13,SW,216,0.0,3.0,91,0.00,,,0.00,,2013-01-01 22:52:00,
2013-01-01 18:02:00,27.0,25.0,30.13,SW,216,0.0,2.0,91,0.00,,,0.00,,2013-01-01 23:02:00,
2013-01-01 18:12:00,27.0,25.0,30.13,SW,216,0.0,2.0,91,0.00,,,0.00,,2013-01-01 23:12:00,
2013-01-01 18:22:00,27.0,25.0,30.14,SW,216,0.0,2.0,91,0.00,,,0.00,,2013-01-01 23:22:00,
2013-01-01 18:32:00,27.0,25.0,30.13,SW,216,0.0,2.0,91,0.00,,,0.00,,2013-01-01 23:32:00,
2013-01-01 18:42:00,27.0,25.0,30.13,SW,216,0.0,2.0,91,0.00,,,0.00,,2013-01-01 23:42:00,
2013-01-01 18:53:00,26.0,24.0,30.14,SW,216,0.0,3.0,91,0.00,,,0.00,,2013-01-01 23:53:00,
2013-01-01 19:02:00,26.0,23.0,30.14,SW,216,0.0,3.0,90,0.00,,,0.00,,2013-01-02 00:02:00,
2013-01-01 19:12:00,26.0,23.0,30.14,SW,216,0.0,3.0,90,0.00,,,0.00,,2013-01-02 00:12:00,
2013-01-01 19:22:00,26.0,24.0,30.14,SW,216,0.0,2.0,91,0.00,,,0.00,,2013-01-02 00:22:00,
2013-01-01 19:32:00,26.0,24.0,30.16,SW,216,0.0,2.0,91,0.00,,,0.00,,2013-01-02 00:32:00,
2013-01-01 19:42:00,26.0,24.0,30.16,SW,216,0.0,2.0,91,0.00,,,0.00,,2013-01-02 00:42:00,
2013-01-01 19:53:00,26.0,23.0,30.17,SW,216,0.0,4.0,90,0.00,,,0.00,,2013-01-02 00:53:00,
2013-01-01 20:02:00,25.0,22.0,30.17,SW,216,1.0,3.0,90,0.00,,,0.00,,2013-01-02 01:02:00,
2013-01-01 20:12:00,25.0,22.0,30.17,SW,216,1.0,3.0,90,0.00,,,0.00,,2013-01-02 01:12:00,
2013-01-01 20:22:00,25.0,22.0,30.17,SW,216,0.0,3.0,90,0.00,,,0.00,,2013-01-02 01:22:00,
2013-01-01 20:32:00,25.0,22.0,30.17,SW,216,0.0,3.0,90,0.00,,,0.00,,2013-01-02 01:32:00,
2013-01-01 20:42:00,25.0,22.0,30.17,SW,216,0.0,3.0,90,0.00,,,0.00,,2013-01-02 01:42:00,
2013-01-01 20:52:00,25.0,22.0,30.17,SW,216,0.0,3.0,90,0.00,,,0.00,,2013-01-02 01:52:00,
2013-01-01 21:02:00,25.0,22.0,30.18,SW,216,0.0,3.0,90,0.00,,,0.00,,2013-01-02 02:02:00,
2013-01-01 21:12:00,25.0,22.0,30.18,SW,216,0.0,3.0,90,0.00,,,0.00,,2013-01-02 02:12:00,
2013-01-01 21:22:00,25.0,22.0,30.18,SW,216,0.0,1.0,90,0.00,,,0.00,,2013-01-02 02:22:00,
2013-01-01 21:32:00,25.0,22.0,30.19,SW,216,0.0,3.0,90,0.00,,,0.00,,2013-01-02 02:32:00,
2013-01-01 21:42:00,25.0,22.0,30.19,SW,216,0.0,3.0,90,0.00,,,0.00,,2013-01-02 02:42:00,
2013-01-01 21:53:00,25.0,22.0,30.19,SW,217,0.0,1.0,90,0.00,,,0.00,,2013-01-02 02:53:00,
2013-01-01 22:02:00,24.0,22.0,30.18,SW,216,0.0,3.0,90,0.00,,,0.00,,2013-01-02 03:02:00,
2013-01-01 22:12:00,24.0,22.0,30.18,SW,216,0.0,3.0,90,0.00,,,0.00,,2013-01-02 03:12:00,
2013-01-01 22:22:00,24.0,22.0,30.19,SW,217,0.0,3.0,90,0.00,,,0.00,,2013-01-02 03:22:00,
2013-01-01 22:32:00,24.0,22.0,30.18,SW,216,0.0,2.0,90,0.00,,,0.00,,2013-01-02 03:32:00,
2013-01-01 22:42:00,24.0,22.0,30.18,SW,216,0.0,2.0,90,0.00,,,0.00,,2013-01-02 03:42:00,
2013-01-01 22:53:00,24.0,22.0,30.18,SW,217,0.0,1.0,90,0.00,,,0.00,,2013-01-02 03:53:00,
2013-01-01 23:02:00,23.0,21.0,30.18,SW,217,0.0,1.0,90,0.00,,,0.00,,2013-01-02 04:02:00,
2013-01-01 23:12:00,23.0,21.0,30.18,SW,217,0.0,1.0,90,0.00,,,0.00,,2013-01-02 04:12:00,
2013-01-01 23:22:00,23.0,21.0,30.19,SW,217,0.0,3.0,90,0.00,,,0.00,,2013-01-02 04:22:00,
2013-01-01 23:32:00,23.0,21.0,30.19,SW,217,0.0,2.0,90,0.00,,,0.00,,2013-01-02 04:32:00,
2013-01-01 23:42:00,23.0,21.0,30.19,SW,217,0.0,2.0,90,0.00,,,0.00,,2013-01-02 04:42:00,
2013-01-01 23:52:00,22.0,20.0,30.20,SW,217,0.0,2.0,90,0.00,,,0.00,,2013-01-02 04:52:00,